TimeCET,TemperatureF,Dew PointF,Humidity,Sea Level PressureIn,VisibilityMPH,Wind Direction,Wind SpeedMPH,Gust SpeedMPH,PrecipitationIn,Events,Conditions,WindDirDegrees,DateUTC
12:00 AM,33.8,30.2,87,30.09,-9999.0,SW,3.5,-,N/A,,Clear,230,2012-11-06 23:00:00
12:30 AM,35.6,30.2,81,30.09,-9999.0,SW,10.4,-,N/A,,Clear,230,2012-11-06 23:30:00
1:00 AM,35,30,74,30.16,16,SW,8.9,,,,Scattered Clouds,230,2012-11-07 00:00:00
1:00 AM,33.8,30.2,87,30.09,6.2,SW,9.2,-,N/A,,Partly Cloudy,230,2012-11-07 00:00:00
1:30 AM,33.8,30.2,87,30.09,-9999.0,SSW,6.9,-,N/A,,Clear,210,2012-11-07 00:30:00
2:00 AM,32.0,28.4,87,30.09,-9999.0,West,2.3,-,N/A,,Clear,260,2012-11-07 01:00:00
2:30 AM,32.0,28.4,87,30.09,-9999.0,SW,3.5,-,N/A,,Clear,230,2012-11-07 01:30:00
3:00 AM,33.8,30.2,87,30.09,-9999.0,SSW,6.9,-,N/A,,Clear,210,2012-11-07 02:00:00
3:30 AM,33.8,30.2,87,30.09,-9999.0,SSW,6.9,-,N/A,,Clear,210,2012-11-07 02:30:00
4:00 AM,32.0,30.2,93,30.09,-9999.0,SSW,4.6,-,N/A,,Clear,200,2012-11-07 03:00:00
4:38 AM,32.0,28.4,87,30.09,-9999.0,SE,5.8,-,N/A,,Clear,140,2012-11-07 03:38:00
5:00 AM,32.0,28.4,87,30.09,-9999.0,SSE,5.8,-,N/A,,Clear,150,2012-11-07 04:00:00
5:30 AM,33.8,30.2,87,30.06,-9999.0,South,5.8,-,N/A,,Clear,190,2012-11-07 04:30:00
6:00 AM,33.8,30.2,87,30.06,-9999.0,SSW,4.6,-,N/A,,Clear,210,2012-11-07 05:00:00
6:30 AM,33.8,30.2,87,30.06,-9999.0,Variable,2.3,-,N/A,,Clear,0,2012-11-07 05:30:00
7:00 AM,35,29,72,30.13,19,South,4.5,,,,Scattered Clouds,170,2012-11-07 06:00:00
7:00 AM,35.6,30.2,81,30.06,6.2,South,4.6,-,N/A,,Partly Cloudy,190,2012-11-07 06:00:00
7:30 AM,35.6,30.2,81,30.06,6.2,South,5.8,-,N/A,,Scattered Clouds,170,2012-11-07 06:30:00
8:00 AM,35.6,32.0,87,30.09,6.2,South,5.8,-,N/A,,Scattered Clouds,170,2012-11-07 07:00:00
8:30 AM,37.4,32.0,81,30.09,6.2,South,4.6,-,N/A,,Mostly Cloudy,180,2012-11-07 07:30:00
9:00 AM,41.0,33.8,76,30.09,6.2,SSW,5.8,-,N/A,,Mostly Cloudy,210,2012-11-07 08:00:00
9:30 AM,44.6,33.8,66,30.09,6.2,West,15.0,-,N/A,,Mostly Cloudy,260,2012-11-07 08:30:00
10:00 AM,44.6,33.8,66,30.12,6.2,West,17.3,-,N/A,,Mostly Cloudy,260,2012-11-07 09:00:00
10:30 AM,44.6,33.8,66,30.12,6.2,West,16.1,-,N/A,,Mostly Cloudy,260,2012-11-07 09:30:00
11:00 AM,44.6,35.6,71,30.12,6.2,West,16.1,-,N/A,,Overcast,260,2012-11-07 10:00:00
11:30 AM,46.4,35.6,66,30.12,6.2,West,16.1,-,N/A,,Overcast,270,2012-11-07 10:30:00
12:00 PM,46.4,35.6,66,30.12,6.2,West,16.1,-,N/A,,Overcast,270,2012-11-07 11:00:00
12:30 PM,46.4,37.4,71,30.12,6.2,West,12.7,-,N/A,,Overcast,270,2012-11-07 11:30:00
1:00 PM,46,37,60,30.16,31,West,11.2,,,,Mostly Cloudy,270,2012-11-07 12:00:00
1:00 PM,46.4,37.4,71,30.12,6.2,West,15.0,-,N/A,,Mostly Cloudy,270,2012-11-07 12:00:00
1:30 PM,46.4,37.4,71,30.12,6.2,West,16.1,-,N/A,,Mostly Cloudy,270,2012-11-07 12:30:00
2:00 PM,46.4,37.4,71,30.12,6.2,West,15.0,-,N/A,,Mostly Cloudy,280,2012-11-07 13:00:00
2:30 PM,46.4,37.4,71,30.12,6.2,West,16.1,-,N/A,,Mostly Cloudy,270,2012-11-07 13:30:00
3:00 PM,46.4,37.4,71,30.15,6.2,West,13.8,-,N/A,,Mostly Cloudy,280,2012-11-07 14:00:00
3:30 PM,46.4,37.4,71,30.15,6.2,West,13.8,-,N/A,,Mostly Cloudy,270,2012-11-07 14:30:00
4:00 PM,46.4,37.4,71,30.15,6.2,West,11.5,-,N/A,,Mostly Cloudy,270,2012-11-07 15:00:00
4:30 PM,46.4,37.4,71,30.15,6.2,West,11.5,-,N/A,,Mostly Cloudy,270,2012-11-07 15:30:00
5:00 PM,46.4,37.4,71,30.18,6.2,West,13.8,-,N/A,,Scattered Clouds,270,2012-11-07 16:00:00
5:30 PM,46.4,37.4,71,30.18,6.2,WSW,6.9,-,N/A,,Mostly Cloudy,240,2012-11-07 16:30:00
6:00 PM,44.6,37.4,76,30.21,6.2,SW,6.9,-,N/A,,Mostly Cloudy,220,2012-11-07 17:00:00
6:30 PM,44.6,37.4,76,30.21,6.2,SSW,5.8,-,N/A,,Mostly Cloudy,210,2012-11-07 17:30:00
7:00 PM,45,38,70,30.26,31,SSW,8.9,,,,Mostly Cloudy,200,2012-11-07 18:00:00
7:00 PM,44.6,39.2,81,30.21,6.2,SSW,8.1,-,N/A,,Mostly Cloudy,200,2012-11-07 18:00:00
7:30 PM,44.6,39.2,81,30.21,6.2,SSW,8.1,-,N/A,,Mostly Cloudy,200,2012-11-07 18:30:00
8:00 PM,44.6,39.2,81,30.24,6.2,SSW,8.1,-,N/A,,Mostly Cloudy,210,2012-11-07 19:00:00
8:30 PM,46.4,39.2,76,30.24,6.2,SW,8.1,-,N/A,,Mostly Cloudy,230,2012-11-07 19:30:00
9:00 PM,44.6,39.2,81,30.24,6.2,SSW,8.1,-,N/A,,Mostly Cloudy,200,2012-11-07 20:00:00
9:30 PM,44.6,39.2,81,30.24,6.2,South,8.1,-,N/A,,Mostly Cloudy,190,2012-11-07 20:30:00
10:00 PM,44.6,39.2,81,30.24,6.2,SSW,6.9,-,N/A,,Overcast,210,2012-11-07 21:00:00
10:30 PM,44.6,39.2,81,30.24,6.2,SSW,5.8,-,N/A,,Overcast,210,2012-11-07 21:30:00
11:00 PM,44.6,39.2,81,30.24,6.2,South,8.1,-,N/A,,Overcast,190,2012-11-07 22:00:00
11:30 PM,44.6,39.2,81,30.24,6.2,SSW,8.1,-,N/A,,Overcast,210,2012-11-07 22:30:00